sat.trackr.live / text

‹ back to catalog

STARLINK-11426 [DTC]

NORAD 62058 · 2024-217B

PAYLOAD ACTIVE UNKNOWN

§ Identity

Operator
Country
US
Launch date
2024-11-24
Launch site
AFWTR
Launch vehicle
Mass (kg)
RCS (m²)

Purposes: comms

External: N2YO · Heavens-Above · Gunter

§ Orbital elements

Epoch: 2026-09-21T12:20:46.434048Z

Period
91.73 min
Inclination
53.1568°
Eccentricity
0.0001234
Mean motion
15.69749681 rev/d
Perigee alt
358.8 km
Apogee alt
360.4 km
Semi-major
6,737.8 km
B*
1.3313e-3
RAAN
185.6478°
Arg perigee
83.4941°
Mean anomaly
276.6217°
Rev number
10,587

§ Raw data

STARLINK-11426 [DTC]1 62058U 24217B   26264.51442632  .00164196  00000+0  13313-2 0  99932 62058  53.1568 185.6478 0001234  83.4941 276.6217 15.69749681105877

JSON: /api/v1/satellites/62058 · /tle

For live sub-satellite position, see the globe view (requires WebGL).

§ Visibility from observer

Set your observer location to see the next 7 days of passes ≥ 10°. The values pass through the URL so the page stays shareable.

No JS? Fill the form by hand. The geolocation button needs JavaScript.